SCP
0 -0 -0 -0 -0 -0 -0 -0 -0 -0 -0 -0 -0 -0 -0 -0 -0 -0 -0 -0 -0 -0 -0 -0 0 0 0 0 0 -0 0 0 0 0 0 0 0 0 0 0 0 0 0 0 0 0 0
0 0 -0 -0 -0 -0 -0 -0 -0 -0 -0 -0 -0 -0 -0 -0 -0 -0 -0 -0 0 -0 -0 -0 -0 -0 0 0 -0 -0 -0 0 0 0 0 0 0 0 0 0 0 0 0 0 0 0 0
0 0 -0 -0 -0 -0 -0 -0 -0 -0 -0 -0 -0 -0 -0 -0 -0 -0 -0 0 0 -0 -0 -0 -0 0 0 0 -0 -0 0 0 0 0 0 0 0 0 0 0 0 0 0 0 0 0 0
0 0 -0 -0 -0 -0 -0 -0 -0 -0 -0 -0 -0 -0 -0 -0 -0 -0 -0 0 0 -0 -0 0 0 0 0 -0 -0 -0 0 0 0 0 0 0 0 0 0 0 0 0 0 0 0 0 0
0 0 0 0 -0 -0 -0 -0 -0 -0 -0 -0 -0 -0 -0 -0 -0 -0 -0 -0 -0 0 0 0 0 0 0 0 0 0 0 0 0 0 0 0 0 0 0 0 0 0 0 0 0 0 0
0 0 0 0 -0 -0 -0 -0 -0 -0 -0 -0 -0 -0 -0 -0 -0 -0 -0 -0 0 0 0 0 0 0 0 0 0 0 -0 0 0 0 0 0 0 0 0 0 0 0 0 0 0 0 0
0 0 0 0 -0 -0 -0 -0 -0 -0 -0 -0 -0 -0 -0 -0 -0 0 0 0 0 0 0 0 0 0 0 0 0 0 -0 0 0 0 0 0 0 0 0 0 0 0 0 0 0 0 0
0 0 0 0 -0 -0 -0 -0 -0 -0 -0 -0 -0 -0 -0 -0 -0 0 0 0 0 0 0 0 0 0 0 0 0 -0 0 0 0 0 0 0 0 0 0 0 0 0 0 0 0 0 0
-0 -0 -0 -0 -0 -0 -0 -0 -0 -0 -0 0 0 0 0 0 0 0 0 0 0 0 0 0 0 0 0 0 -0 -0 0 0 0 0 0 0 0 0 0 0 0 0 0 0 0 0 0
-0 0 0 0 0 0 0 0 0 0 -0 0 0 0 0 -0 0 0 0 0 0 0 0 0 0 0 0 0 0 -0 -0 0 0 0 0 0 0 0 0 0 0 0 0 0 0 0 0
0 0 0 0 0 0 0 0 0 0 0 -0 -0 0 0 0 0 0 0 0 0 0 0 0 0 0 0 0 0 0 0 0 0 0 0 0 0 0 0 0 0 0 0 0 0 0 0
0 0 0 0 0 0 0 0 0 0 0 0 -0 0 0 0 0 0 0 0 0 0 0 0 0 0 0 0 0 0 0 0 0 0 0 0 0 0 0 0 0 0 0 0 0 0 0
0 0 0 0 0 0 0 0 0 0 0 0 0 0 0 0 0 0 0 0 0 0 0 0 0 0 0 0 0 0 0 0 0 0 0 0 0 0 0 0 0 0 0 0 0 0 0
0 0 0 0 0 0 0 0 -0 0 0 0 0 0 0 0 0 0 0 0 0 0 0 0 0 0 0 0 0 0 0 0 0 0 0 0 0 0 0 0 0 0 0 0 0 0 0
0 0 0 0 0 0 0 0 -0 0 0 -0 0 0 0 0 0 0 0 0 0 0 0 0 0 0 0 0 0 0 0 0 0 0 0 0 0 0 0 0 0 0 0 0 0 0 0
0 0 0 0 0 0 0 0 0 0 0 -0 0 0 0 0 0 0 0 0 0 0 0 0 0 0 0 0 0 0 0 0 0 0 0 0 0 0 0 0 0 0 0 0 0 0 0
0 0 0 0 0 0 0 0 0 0 0 0 0 0 0 0 0 0 0 0 0 0 0 0 0 0 0 0 0 0 0 0 0 0 0 0 0 0 0 0 0 0 0 0 0 0 0
0 0 0 0 0 0 0 0 0 0 0 0 0 0 0 0 0 0 0 0 0 0 0 0 0 0 0 0 0 0 0 0 0 0 0 0 0 0 0 0 0 0 0 0 0 0 0
0 0 0 0 0 0 0 0 0 0 0 0 0 0 0 0 0 0 0 0 0 0 0 0 0 0 0 0 0 0 0 0 0 0 0 0 0 0 0 0 0 0 0 0 0 0 0
0 0 0 0 0 0 0 0 0 0 0 0 0 0 0 0 0 0 0 0 0 0 0 0 0 0 0 0 0 0 0 0 0 0 0 0 0 0 0 0 0 0 0 0 0 0 0
0 0 0 0 0 0 0 0 0 0 0 0 0 0 0 0 0 0 0 0 0 0 0 0 0 0 0 0 0 0 0 0 0 0 0 0 0 0 0 0 0 0 0 0 0 0 0
0 0 0 0 0 0 0 0 0 0 0 0 0 0 0 0 0 0 0 0 0 0 0 0 0 0 0 0 0 0 0 0 0 0 0 0 0 0 0 0 0 0 0 0 0 0 0
0 0 0 0 0 0 0 0 0 0 0 0 0 0 0 0 0 0 0 0 0 0 0 0 0 0 0 0 0 0 0 0 0 0 0 0 0 0 0 0 0 0 0 0 0 0 0
0 0 0 0 0 0 0 0 0 0 0 0 0 0 0 0 0 0 0 0 0 0 0 0 0 0 0 0 0 0 0 0 0 0 0 0 0 0 0 0 0 0 0 0 0 0 0
0 0 0 0 0 0 0 0 0 0 0 0 0 0 0 0 0 0 0 0 0 0 0 0 0 0 0 0 0 0 0 0 0 0 0 0 0 0 0 0 0 0 0 0 0 0 0
0 0 0 0 0 0 0 0 0 0 0 0 0 0 0 0 0 0 0 0 0 0 0 0 0 0 0 0 0 0 0 0 0 0 0 0 0 0 0 0 0 0 0 0 0 0 0
0 0 0 0 0 0 0 0 0 0 0 0 0 0 0 0 0 0 0 0 0 0 0 0 0 0 0 0 0 0 0 0 0 0 0 0 0 0 0 0 0 0 0 0 0 0 0
0 0 0 0 0 0 0 0 0 0 0 0 0 0 0 0 0 0 0 0 0 0 0 0 0 0 0 0 0 0 0 0 0 0 0 0 0 0 0 0 0 0 0 0 0 0 0
0 0 0 0 0 0 0 0 0 0 0 0 0 0 0 0 0 0 0 0 0 0 0 0 0 0 0 0 0 0 0 0 -0 -0 -0 0 0 0 0 0 0 0 -0 0 0 0 0
Wind_Speed_500mb
57 57 58 58 60 61 61 61 59 56 52 47 42 37 31 27 26 26 23 17 12 10 7 8 11 17 18 8 9 12 7 9 14 16 18 23 29 6 4 5 9 3 3 11 23 19 12
56 56 56 56 57 59 59 59 60 58 55 51 46 41 35 27 24 24 21 16 12 10 10 10 14 16 12 4 9 11 6 4 9 13 12 14 10 9 8 1 4 9 11 23 9 7 8
56 56 56 56 57 58 59 59 59 58 57 54 50 44 40 33 23 19 18 15 14 14 14 15 16 17 15 8 8 8 7 6 9 14 16 11 11 4 6 2 9 7 10 11 5 10 8
58 58 57 57 57 58 58 59 60 59 57 56 53 48 42 36 26 19 17 15 17 19 18 15 14 15 10 12 10 12 13 7 6 7 11 8 15 7 3 6 11 8 8 9 10 15 4
59 59 59 59 60 61 61 61 61 60 59 56 55 52 47 41 30 18 18 17 19 22 23 19 17 9 11 11 10 4 6 4 7 10 7 8 3 3 4 7 9 12 1 4 14 6 2
62 62 63 63 63 64 64 63 63 62 61 58 56 54 49 44 33 17 14 15 23 23 12 17 20 8 14 9 9 11 11 8 9 12 5 5 4 7 7 9 5 7 3 7 10 9 3
62 63 63 64 65 66 66 66 65 64 65 62 58 56 52 45 33 12 10 15 11 6 10 19 22 26 16 13 18 18 19 16 11 3 2 5 8 6 14 14 8 6 6 9 10 12 2
61 61 62 63 65 65 67 68 68 68 67 65 62 57 54 49 30 8 10 5 5 17 25 39 46 49 45 35 14 23 26 13 8 5 4 9 6 13 8 5 9 7 6 13 10 9 8
60 61 63 63 65 66 66 67 68 69 69 67 64 61 56 48 30 6 3 6 12 19 11 19 10 13 21 32 23 22 15 17 8 4 8 11 11 4 4 1 5 7 10 10 14 3 8
61 61 60 61 63 66 69 70 71 71 69 66 67 65 61 47 22 11 6 11 16 19 8 12 6 5 19 15 10 24 35 18 4 16 10 9 5 10 6 10 12 6 12 10 7 6 5
58 56 59 64 66 68 71 72 72 72 69 66 62 64 59 47 32 19 10 8 15 12 10 4 4 5 13 14 2 6 21 24 18 16 12 16 9 10 9 12 12 16 5 5 2 2 5
56 57 59 62 65 67 70 73 74 73 71 67 59 62 56 48 35 13 14 10 8 11 11 7 6 6 8 10 7 6 11 14 7 10 4 15 4 9 14 3 10 4 7 11 8 6 3
58 59 58 61 64 65 68 72 75 72 71 70 67 64 49 37 17 8 5 5 9 8 8 8 5 10 8 7 7 8 9 11 13 6 9 7 8 7 9 8 3 10 11 6 8 5 10
61 58 56 59 61 64 69 73 78 75 72 71 67 63 32 22 17 19 5 9 5 5 8 8 12 14 9 4 8 5 3 6 8 6 5 9 12 11 9 12 16 8 14 10 10 7 10
60 53 51 56 63 68 71 72 75 75 73 72 65 49 40 24 11 6 7 6 11 7 8 14 16 6 9 4 3 3 4 8 12 14 15 11 10 6 2 6 12 7 7 6 6 4 4
51 48 53 61 68 71 71 71 72 71 68 67 63 42 35 28 3 3 8 9 7 7 11 4 5 6 8 9 4 3 5 6 7 5 4 4 6 7 5 7 6 10 14 5 4 6 10
45 47 57 66 70 68 68 68 68 71 66 61 48 22 21 32 10 3 5 9 8 21 20 6 7 11 14 11 10 10 8 9 9 7 7 12 10 10 2 11 16 3 3 8 6 10 8
45 52 62 67 63 61 61 63 63 66 66 59 33 9 32 42 2 6 5 12 19 18 36 11 10 6 6 7 9 8 14 14 13 15 11 11 10 10 19 6 2 6 14 13 9 8 7
47 56 62 61 57 55 56 58 58 57 60 58 33 16 25 37 7 7 13 10 7 15 13 12 10 11 11 7 12 11 12 16 33 17 14 13 5 4 13 11 4 7 9 9 8 6 12
55 59 57 53 52 51 52 53 53 52 50 44 16 9 17 20 16 9 10 9 12 19 2 18 11 14 11 12 7 15 18 11 15 8 14 18 11 17 22 15 7 8 10 11 13 8 6
52 51 47 47 48 48 47 49 50 49 46 30 17 7 9 9 7 7 4 7 12 8 14 18 4 14 13 9 11 11 9 23 26 15 6 1 11 7 7 9 10 17 23 23 29 33 21
47 45 43 42 43 43 43 44 48 47 42 20 12 11 11 14 23 17 7 5 7 9 12 14 9 21 13 15 14 9 17 11 16 19 6 5 7 15 17 30 29 42 35 31 38 44 38
41 39 39 39 39 39 40 41 43 43 38 16 15 7 3 10 10 4 6 5 9 28 19 9 19 21 27 23 29 49 50 50 36 22 29 8 3 2 18 4 9 23 29 39 27 30 28
36 36 36 36 35 36 37 37 36 37 34 26 20 8 1 8 2 7 12 22 29 29 20 30 41 23 17 52 65 50 50 51 51 43 46 25 29 19 12 6 17 12 3 7 16 14 10
35 35 35 33 32 32 33 32 31 29 29 24 16 5 1 7 10 23 19 14 22 33 38 36 53 24 50 36 9 13 8 9 23 42 41 41 27 6 7 9 14 18 4 7 8 10 8
34 34 32 31 29 28 30 30 29 25 24 21 6 7 4 7 10 13 9 21 8 7 9 12 24 54 32 7 4 9 9 4 9 13 4 14 7 11 6 6 8 9 7 5 8 8 11
33 31 30 28 27 26 26 26 24 23 19 18 11 10 8 11 27 9 11 6 10 7 8 18 17 22 16 4 6 8 11 8 9 9 9 7 7 19 15 12 12 2 19 18 8 6 21
30 30 31 29 26 25 23 23 24 23 21 18 16 14 12 15 55 54 42 31 31 19 7 20 22 1 5 6 6 7 5 6 9 4 11 7 7 8 11 15 16 20 17 7 18 20 46
31 30 28 27 25 23 25 23 24 26 20 20 26 22 24 32 53 76 86 72 77 75 50 22 20 10 7 2 3 5 6 6 8 5 10 6 7 8 5 6 17 37 43 47 29 41 26
Wind_Direction_500mb
34 32 31 29 28 27 26 24 23 20 17 13 9 6 359 352 355 3 3 1 9 6 353 345 346 355 18 70 114 124 94 62 47 40 35 39 40 81 91 332 352 65 292 307 305 292 268
29 27 25 23 22 22 20 20 19 18 15 11 8 2 359 350 344 352 359 3 353 345 336 338 336 338 1 36 140 170 231 293 334 340 343 13 20 58 96 329 105 311 294 297 330 356 349
24 22 20 18 18 17 16 15 14 13 13 10 7 2 356 351 336 336 337 344 343 331 317 315 322 328 307 236 193 222 255 270 290 303 304 307 330 340 336 29 326 306 343 346 303 339 11
19 17 16 15 14 14 13 12 11 9 8 7 6 2 355 348 338 320 317 312 317 310 304 304 307 318 269 213 242 272 272 272 251 272 331 279 290 294 355 326 12 34 51 19 293 356 14
17 15 13 12 11 10 9 8 7 6 4 3 2 1 356 348 340 317 303 306 304 306 285 279 289 291 269 209 234 276 255 236 284 309 301 261 195 94 44 64 15 9 264 313 318 315 304
12 10 8 7 7 6 5 5 4 3 2 1 357 357 356 349 343 329 315 308 302 306 283 264 269 274 235 192 222 288 237 261 275 295 190 154 99 72 44 68 225 243 252 263 253 269 337
8 7 5 4 3 2 1 2 2 1 359 359 356 351 353 348 343 326 350 337 339 322 305 252 263 258 259 247 267 264 246 233 259 273 74 29 75 232 242 204 210 190 201 239 261 270 262
6 4 3 1 0 359 359 358 359 359 357 356 354 350 348 347 342 315 333 23 358 303 294 284 268 257 254 261 292 247 234 239 169 243 101 19 236 229 240 177 193 222 240 256 277 263 192
359 357 357 357 356 356 356 355 354 355 353 352 353 350 347 348 340 296 311 42 331 322 292 296 270 243 227 216 230 246 204 199 166 219 189 165 233 179 238 219 198 243 208 233 226 296 294
356 355 355 355 354 353 353 351 349 348 347 345 344 345 347 349 351 316 265 316 328 327 37 282 272 184 163 158 233 248 241 199 175 208 177 229 259 175 186 237 165 228 225 232 263 26 266
355 353 354 352 351 350 349 349 348 347 345 340 339 335 336 342 332 314 249 317 316 327 343 231 196 171 179 178 253 218 217 204 199 196 120 244 213 210 222 231 171 228 156 190 330 274 42
351 349 348 348 349 348 348 347 347 348 345 342 341 337 327 330 324 282 256 295 302 43 262 335 156 173 139 235 237 176 184 200 213 161 233 238 212 190 213 160 182 130 98 50 54 87 3
347 347 347 348 349 349 350 349 347 349 347 343 346 345 329 318 308 206 207 269 42 146 326 342 10 12 339 266 283 189 197 185 185 134 245 312 238 248 167 126 16 78 61 329 336 3 227
343 346 346 348 349 349 348 348 345 346 347 343 348 355 1 340 303 212 181 53 195 270 276 351 9 316 223 234 248 302 179 241 208 113 135 201 311 189 179 183 181 170 156 162 246 223 238
341 345 347 348 346 344 343 344 342 345 348 341 344 360 15 17 74 128 162 87 219 231 321 352 330 305 305 307 285 353 240 224 203 171 184 171 263 292 167 154 133 180 177 185 119 32 48
338 342 343 342 341 341 340 343 342 344 347 346 346 344 14 1 20 34 78 230 247 230 328 330 244 248 273 272 290 278 239 229 201 167 131 207 294 241 216 88 27 162 162 75 20 270 255
337 336 337 337 338 340 342 345 347 344 350 353 352 336 345 358 290 318 168 238 320 329 348 280 254 262 253 252 224 220 245 292 194 187 186 158 158 270 152 202 185 148 211 71 138 159 219
330 330 331 333 336 340 344 345 349 347 350 357 359 343 332 348 2 44 38 329 329 346 5 331 328 323 280 323 295 258 229 221 182 166 197 203 166 206 213 251 24 177 202 157 147 233 232
323 326 328 330 335 340 344 346 349 352 354 355 343 304 353 3 46 22 336 320 298 355 345 349 311 8 2 297 314 242 243 256 251 185 187 183 202 342 332 347 23 200 195 154 108 69 203
321 323 325 328 334 341 344 345 348 355 357 357 360 359 342 49 64 71 350 293 324 321 198 357 289 37 354 348 322 315 306 313 324 272 203 168 181 175 238 215 172 197 179 192 162 169 216
318 319 322 327 333 339 343 344 346 355 360 7 18 49 14 332 335 323 255 276 289 338 356 354 312 48 1 299 314 358 350 332 318 287 279 279 250 205 267 291 275 245 241 233 233 248 233
316 318 321 327 332 337 342 343 345 351 1 19 29 9 352 291 307 338 349 295 316 14 351 316 341 340 320 288 271 286 308 318 277 324 253 136 254 264 271 273 270 259 246 240 241 246 249
313 315 320 324 330 334 339 344 346 347 1 32 26 10 313 278 328 354 257 357 324 339 299 293 340 326 316 297 309 296 281 263 245 272 286 296 267 276 265 258 293 277 221 220 229 239 233
311 313 317 322 327 331 336 340 344 345 356 10 9 19 136 276 256 233 304 315 296 299 277 288 291 279 260 307 304 295 274 248 239 238 221 220 241 249 264 144 257 260 186 189 209 233 212
307 309 312 316 322 327 331 334 338 343 345 1 8 20 262 274 246 285 277 271 303 301 281 274 290 276 313 312 280 300 280 270 237 234 231 225 240 226 232 214 302 294 191 166 168 254 182
302 304 307 313 318 324 328 331 335 342 350 354 341 347 279 299 245 258 321 299 291 279 299 245 280 306 319 250 277 247 240 279 266 301 2 127 186 215 167 247 241 238 66 193 96 253 140
299 302 306 310 313 318 323 326 330 335 336 337 337 328 319 271 281 283 206 277 276 281 265 303 323 314 291 240 238 236 245 241 265 252 298 231 186 235 242 246 272 81 60 1 226 234 258
296 300 303 304 306 314 321 322 323 325 318 323 304 313 306 268 283 275 269 257 257 238 218 305 332 210 299 269 313 344 310 57 326 321 289 281 274 216 216 217 228 72 344 264 242 289 294
297 304 305 304 305 304 311 314 310 311 302 317 303 310 295 279 272 292 290 280 263 259 258 244 239 302 274 323 360 345 312 282 241 272 203 264 229 298 246 262 218 266 254 275 282 280 287
Wind_Speed_850mb
57 57 58 58 60 61 61 61 59 56 52 47 42 37 31 27 26 26 23 17 12 10 7 8 11 17 18 8 9 12 7 9 14 16 18 23 29 6 4 5 9 3 3 11 23 19 12
56 56 56 56 57 59 59 59 60 58 55 51 46 41 35 27 24 24 21 16 12 10 10 10 14 16 12 4 9 11 6 4 9 13 12 14 10 9 8 1 4 9 11 23 9 7 8
56 56 56 56 57 58 59 59 59 58 57 54 50 44 40 33 23 19 18 15 14 14 14 15 16 17 15 8 8 8 7 6 9 14 16 11 11 4 6 2 9 7 10 11 5 10 8
58 58 57 57 57 58 58 59 60 59 57 56 53 48 42 36 26 19 17 15 17 19 18 15 14 15 10 12 10 12 13 7 6 7 11 8 15 7 3 6 11 8 8 9 10 15 4
59 59 59 59 60 61 61 61 61 60 59 56 55 52 47 41 30 18 18 17 19 22 23 19 17 9 11 11 10 4 6 4 7 10 7 8 3 3 4 7 9 12 1 4 14 6 2
62 62 63 63 63 64 64 63 63 62 61 58 56 54 49 44 33 17 14 15 23 23 12 17 20 8 14 9 9 11 11 8 9 12 5 5 4 7 7 9 5 7 3 7 10 9 3
62 63 63 64 65 66 66 66 65 64 65 62 58 56 52 45 33 12 10 15 11 6 10 19 22 26 16 13 18 18 19 16 11 3 2 5 8 6 14 14 8 6 6 9 10 12 2
61 61 62 63 65 65 67 68 68 68 67 65 62 57 54 49 30 8 10 5 5 17 25 39 46 49 45 35 14 23 26 13 8 5 4 9 6 13 8 5 9 7 6 13 10 9 8
60 61 63 63 65 66 66 67 68 69 69 67 64 61 56 48 30 6 3 6 12 19 11 19 10 13 21 32 23 22 15 17 8 4 8 11 11 4 4 1 5 7 10 10 14 3 8
61 61 60 61 63 66 69 70 71 71 69 66 67 65 61 47 22 11 6 11 16 19 8 12 6 5 19 15 10 24 35 18 4 16 10 9 5 10 6 10 12 6 12 10 7 6 5
58 56 59 64 66 68 71 72 72 72 69 66 62 64 59 47 32 19 10 8 15 12 10 4 4 5 13 14 2 6 21 24 18 16 12 16 9 10 9 12 12 16 5 5 2 2 5
56 57 59 62 65 67 70 73 74 73 71 67 59 62 56 48 35 13 14 10 8 11 11 7 6 6 8 10 7 6 11 14 7 10 4 15 4 9 14 3 10 4 7 11 8 6 3
58 59 58 61 64 65 68 72 75 72 71 70 67 64 49 37 17 8 5 5 9 8 8 8 5 10 8 7 7 8 9 11 13 6 9 7 8 7 9 8 3 10 11 6 8 5 10
61 58 56 59 61 64 69 73 78 75 72 71 67 63 32 22 17 19 5 9 5 5 8 8 12 14 9 4 8 5 3 6 8 6 5 9 12 11 9 12 16 8 14 10 10 7 10
60 53 51 56 63 68 71 72 75 75 73 72 65 49 40 24 11 6 7 6 11 7 8 14 16 6 9 4 3 3 4 8 12 14 15 11 10 6 2 6 12 7 7 6 6 4 4
51 48 53 61 68 71 71 71 72 71 68 67 63 42 35 28 3 3 8 9 7 7 11 4 5 6 8 9 4 3 5 6 7 5 4 4 6 7 5 7 6 10 14 5 4 6 10
45 47 57 66 70 68 68 68 68 71 66 61 48 22 21 32 10 3 5 9 8 21 20 6 7 11 14 11 10 10 8 9 9 7 7 12 10 10 2 11 16 3 3 8 6 10 8
45 52 62 67 63 61 61 63 63 66 66 59 33 9 32 42 2 6 5 12 19 18 36 11 10 6 6 7 9 8 14 14 13 15 11 11 10 10 19 6 2 6 14 13 9 8 7
47 56 62 61 57 55 56 58 58 57 60 58 33 16 25 37 7 7 13 10 7 15 13 12 10 11 11 7 12 11 12 16 33 17 14 13 5 4 13 11 4 7 9 9 8 6 12
55 59 57 53 52 51 52 53 53 52 50 44 16 9 17 20 16 9 10 9 12 19 2 18 11 14 11 12 7 15 18 11 15 8 14 18 11 17 22 15 7 8 10 11 13 8 6
52 51 47 47 48 48 47 49 50 49 46 30 17 7 9 9 7 7 4 7 12 8 14 18 4 14 13 9 11 11 9 23 26 15 6 1 11 7 7 9 10 17 23 23 29 33 21
47 45 43 42 43 43 43 44 48 47 42 20 12 11 11 14 23 17 7 5 7 9 12 14 9 21 13 15 14 9 17 11 16 19 6 5 7 15 17 30 29 42 35 31 38 44 38
41 39 39 39 39 39 40 41 43 43 38 16 15 7 3 10 10 4 6 5 9 28 19 9 19 21 27 23 29 49 50 50 36 22 29 8 3 2 18 4 9 23 29 39 27 30 28
36 36 36 36 35 36 37 37 36 37 34 26 20 8 1 8 2 7 12 22 29 29 20 30 41 23 17 52 65 50 50 51 51 43 46 25 29 19 12 6 17 12 3 7 16 14 10
35 35 35 33 32 32 33 32 31 29 29 24 16 5 1 7 10 23 19 14 22 33 38 36 53 24 50 36 9 13 8 9 23 42 41 41 27 6 7 9 14 18 4 7 8 10 8
34 34 32 31 29 28 30 30 29 25 24 21 6 7 4 7 10 13 9 21 8 7 9 12 24 54 32 7 4 9 9 4 9 13 4 14 7 11 6 6 8 9 7 5 8 8 11
33 31 30 28 27 26 26 26 24 23 19 18 11 10 8 11 27 9 11 6 10 7 8 18 17 22 16 4 6 8 11 8 9 9 9 7 7 19 15 12 12 2 19 18 8 6 21
30 30 31 29 26 25 23 23 24 23 21 18 16 14 12 15 55 54 42 31 31 19 7 20 22 1 5 6 6 7 5 6 9 4 11 7 7 8 11 15 16 20 17 7 18 20 46
31 30 28 27 25 23 25 23 24 26 20 20 26 22 24 32 53 76 86 72 77 75 50 22 20 10 7 2 3 5 6 6 8 5 10 6 7 8 5 6 17 37 43 47 29 41 26
Wind_Direction_850mb
34 32 31 29 28 27 26 24 23 20 17 13 9 6 359 352 355 3 3 1 9 6 353 345 346 355 18 70 114 124 94 62 47 40 35 39 40 81 91 332 352 65 292 307 305 292 268
29 27 25 23 22 22 20 20 19 18 15 11 8 2 359 350 344 352 359 3 353 345 336 338 336 338 1 36 140 170 231 293 334 340 343 13 20 58 96 329 105 311 294 297 330 356 349
24 22 20 18 18 17 16 15 14 13 13 10 7 2 356 351 336 336 337 344 343 331 317 315 322 328 307 236 193 222 255 270 290 303 304 307 330 340 336 29 326 306 343 346 303 339 11
19 17 16 15 14 14 13 12 11 9 8 7 6 2 355 348 338 320 317 312 317 310 304 304 307 318 269 213 242 272 272 272 251 272 331 279 290 294 355 326 12 34 51 19 293 356 14
17 15 13 12 11 10 9 8 7 6 4 3 2 1 356 348 340 317 303 306 304 306 285 279 289 291 269 209 234 276 255 236 284 309 301 261 195 94 44 64 15 9 264 313 318 315 304
12 10 8 7 7 6 5 5 4 3 2 1 357 357 356 349 343 329 315 308 302 306 283 264 269 274 235 192 222 288 237 261 275 295 190 154 99 72 44 68 225 243 252 263 253 269 337
8 7 5 4 3 2 1 2 2 1 359 359 356 351 353 348 343 326 350 337 339 322 305 252 263 258 259 247 267 264 246 233 259 273 74 29 75 232 242 204 210 190 201 239 261 270 262
6 4 3 1 0 359 359 358 359 359 357 356 354 350 348 347 342 315 333 23 358 303 294 284 268 257 254 261 292 247 234 239 169 243 101 19 236 229 240 177 193 222 240 256 277 263 192
359 357 357 357 356 356 356 355 354 355 353 352 353 350 347 348 340 296 311 42 331 322 292 296 270 243 227 216 230 246 204 199 166 219 189 165 233 179 238 219 198 243 208 233 226 296 294
356 355 355 355 354 353 353 351 349 348 347 345 344 345 347 349 351 316 265 316 328 327 37 282 272 184 163 158 233 248 241 199 175 208 177 229 259 175 186 237 165 228 225 232 263 26 266
355 353 354 352 351 350 349 349 348 347 345 340 339 335 336 342 332 314 249 317 316 327 343 231 196 171 179 178 253 218 217 204 199 196 120 244 213 210 222 231 171 228 156 190 330 274 42
351 349 348 348 349 348 348 347 347 348 345 342 341 337 327 330 324 282 256 295 302 43 262 335 156 173 139 235 237 176 184 200 213 161 233 238 212 190 213 160 182 130 98 50 54 87 3
347 347 347 348 349 349 350 349 347 349 347 343 346 345 329 318 308 206 207 269 42 146 326 342 10 12 339 266 283 189 197 185 185 134 245 312 238 248 167 126 16 78 61 329 336 3 227
343 346 346 348 349 349 348 348 345 346 347 343 348 355 1 340 303 212 181 53 195 270 276 351 9 316 223 234 248 302 179 241 208 113 135 201 311 189 179 183 181 170 156 162 246 223 238
341 345 347 348 346 344 343 344 342 345 348 341 344 360 15 17 74 128 162 87 219 231 321 352 330 305 305 307 285 353 240 224 203 171 184 171 263 292 167 154 133 180 177 185 119 32 48
338 342 343 342 341 341 340 343 342 344 347 346 346 344 14 1 20 34 78 230 247 230 328 330 244 248 273 272 290 278 239 229 201 167 131 207 294 241 216 88 27 162 162 75 20 270 255
337 336 337 337 338 340 342 345 347 344 350 353 352 336 345 358 290 318 168 238 320 329 348 280 254 262 253 252 224 220 245 292 194 187 186 158 158 270 152 202 185 148 211 71 138 159 219
330 330 331 333 336 340 344 345 349 347 350 357 359 343 332 348 2 44 38 329 329 346 5 331 328 323 280 323 295 258 229 221 182 166 197 203 166 206 213 251 24 177 202 157 147 233 232
323 326 328 330 335 340 344 346 349 352 354 355 343 304 353 3 46 22 336 320 298 355 345 349 311 8 2 297 314 242 243 256 251 185 187 183 202 342 332 347 23 200 195 154 108 69 203
321 323 325 328 334 341 344 345 348 355 357 357 360 359 342 49 64 71 350 293 324 321 198 357 289 37 354 348 322 315 306 313 324 272 203 168 181 175 238 215 172 197 179 192 162 169 216
318 319 322 327 333 339 343 344 346 355 360 7 18 49 14 332 335 323 255 276 289 338 356 354 312 48 1 299 314 358 350 332 318 287 279 279 250 205 267 291 275 245 241 233 233 248 233
316 318 321 327 332 337 342 343 345 351 1 19 29 9 352 291 307 338 349 295 316 14 351 316 341 340 320 288 271 286 308 318 277 324 253 136 254 264 271 273 270 259 246 240 241 246 249
313 315 320 324 330 334 339 344 346 347 1 32 26 10 313 278 328 354 257 357 324 339 299 293 340 326 316 297 309 296 281 263 245 272 286 296 267 276 265 258 293 277 221 220 229 239 233
311 313 317 322 327 331 336 340 344 345 356 10 9 19 136 276 256 233 304 315 296 299 277 288 291 279 260 307 304 295 274 248 239 238 221 220 241 249 264 144 257 260 186 189 209 233 212
307 309 312 316 322 327 331 334 338 343 345 1 8 20 262 274 246 285 277 271 303 301 281 274 290 276 313 312 280 300 280 270 237 234 231 225 240 226 232 214 302 294 191 166 168 254 182
302 304 307 313 318 324 328 331 335 342 350 354 341 347 279 299 245 258 321 299 291 279 299 245 280 306 319 250 277 247 240 279 266 301 2 127 186 215 167 247 241 238 66 193 96 253 140
299 302 306 310 313 318 323 326 330 335 336 337 337 328 319 271 281 283 206 277 276 281 265 303 323 314 291 240 238 236 245 241 265 252 298 231 186 235 242 246 272 81 60 1 226 234 258
296 300 303 304 306 314 321 322 323 325 318 323 304 313 306 268 283 275 269 257 257 238 218 305 332 210 299 269 313 344 310 57 326 321 289 281 274 216 216 217 228 72 344 264 242 289 294
297 304 305 304 305 304 311 314 310 311 302 317 303 310 295 279 272 292 290 280 263 259 258 244 239 302 274 323 360 345 312 282 241 272 203 264 229 298 246 262 218 266 254 275 282 280 287